Track COSMOS 256 now! 10-day predictions COSMOS 256 is classified as:
1 3576U 68106A 21061.49786859 -.00000110 00000-0 -23778-3 0 9992 2 3576 74.0473 107.9715 0033027 140.8589 320.1985 13.16812985511681